<?xml version="1.0" encoding="UTF-8"?>
<gpx version="1.0" creator="http://thydzik.com" xmlns:xsi="http://www.w3.org/2001/XMLSchema-instance" xmlns="http://www.topografix.com/GPX/1/0" xsi:schemaLocation="http://www.topografix.com/GPX/1/0 http://www.topografix.com/GPX/1/0/gpx.xsd">
  <url></url>
  <time>2024-03-12T04:14:51Z</time>
  <trk>
    <name></name>
    <trkseg>
      <trkpt lat="40.8991188386292" lon="-3.87468029515869">
        <time>2024-03-12T04:14:51Z</time>
      </trkpt>
      <trkpt lat="40.8987707991664" lon="-3.87443231884849">
        <time>2024-03-12T04:14:51Z</time>
      </trkpt>
      <trkpt lat="40.898533678349" lon="-3.87429789325155">
        <time>2024-03-12T04:14:51Z</time>
      </trkpt>
      <trkpt lat="40.898248132106" lon="-3.87414041363127">
        <time>2024-03-12T04:14:51Z</time>
      </trkpt>
      <trkpt lat="40.8981923690339" lon="-3.87412366704854">
        <time>2024-03-12T04:14:51Z</time>
      </trkpt>
      <trkpt lat="40.8981218817819" lon="-3.8741259415757">
        <time>2024-03-12T04:14:51Z</time>
      </trkpt>
      <trkpt lat="40.8980707597771" lon="-3.87413807849456">
        <time>2024-03-12T04:14:51Z</time>
      </trkpt>
      <trkpt lat="40.8979855240687" lon="-3.87416257619997">
        <time>2024-03-12T04:14:51Z</time>
      </trkpt>
      <trkpt lat="40.8978645701439" lon="-3.8740905293602">
        <time>2024-03-12T04:14:51Z</time>
      </trkpt>
      <trkpt lat="40.8977312974956" lon="-3.87404073790813">
        <time>2024-03-12T04:14:51Z</time>
      </trkpt>
      <trkpt lat="40.8976295874103" lon="-3.8739945645716">
        <time>2024-03-12T04:14:51Z</time>
      </trkpt>
      <trkpt lat="40.8974984289988" lon="-3.87398643325968">
        <time>2024-03-12T04:14:51Z</time>
      </trkpt>
      <trkpt lat="40.8973888471945" lon="-3.87401701539961">
        <time>2024-03-12T04:14:51Z</time>
      </trkpt>
      <trkpt lat="40.8972569606965" lon="-3.87410494784543">
        <time>2024-03-12T04:14:51Z</time>
      </trkpt>
      <trkpt lat="40.8970489020112" lon="-3.87430396232393">
        <time>2024-03-12T04:14:51Z</time>
      </trkpt>
      <trkpt lat="40.8969559157081" lon="-3.87438920358376">
        <time>2024-03-12T04:14:51Z</time>
      </trkpt>
      <trkpt lat="40.8967828808626" lon="-3.87445577707952">
        <time>2024-03-12T04:14:51Z</time>
      </trkpt>
      <trkpt lat="40.8967438954676" lon="-3.87446967456041">
        <time>2024-03-12T04:14:51Z</time>
      </trkpt>
      <trkpt lat="40.8966637377232" lon="-3.87446541650993">
        <time>2024-03-12T04:14:51Z</time>
      </trkpt>
      <trkpt lat="40.8964103610391" lon="-3.87423150662427">
        <time>2024-03-12T04:14:51Z</time>
      </trkpt>
      <trkpt lat="40.8963569063494" lon="-3.87423080285445">
        <time>2024-03-12T04:14:51Z</time>
      </trkpt>
      <trkpt lat="40.8962733720888" lon="-3.87435139417222">
        <time>2024-03-12T04:14:51Z</time>
      </trkpt>
      <trkpt lat="40.8961896434576" lon="-3.87449760177523">
        <time>2024-03-12T04:14:51Z</time>
      </trkpt>
      <trkpt lat="40.896079405863" lon="-3.87461463834716">
        <time>2024-03-12T04:14:51Z</time>
      </trkpt>
      <trkpt lat="40.8960295963668" lon="-3.87477410157132">
        <time>2024-03-12T04:14:51Z</time>
      </trkpt>
      <trkpt lat="40.8959941222661" lon="-3.87496577727982">
        <time>2024-03-12T04:14:51Z</time>
      </trkpt>
      <trkpt lat="40.8959495605687" lon="-3.87507407108763">
        <time>2024-03-12T04:14:51Z</time>
      </trkpt>
      <trkpt lat="40.8958490414314" lon="-3.87519123437225">
        <time>2024-03-12T04:14:51Z</time>
      </trkpt>
      <trkpt lat="40.895753794839" lon="-3.87525402647659">
        <time>2024-03-12T04:14:51Z</time>
      </trkpt>
      <trkpt lat="40.8956774515767" lon="-3.87538751969064">
        <time>2024-03-12T04:14:51Z</time>
      </trkpt>
      <trkpt lat="40.8956270818704" lon="-3.87562062840433">
        <time>2024-03-12T04:14:51Z</time>
      </trkpt>
      <trkpt lat="40.8955423059783" lon="-3.87590452074483">
        <time>2024-03-12T04:14:51Z</time>
      </trkpt>
      <trkpt lat="40.8954850351712" lon="-3.87608629978844">
        <time>2024-03-12T04:14:51Z</time>
      </trkpt>
      <trkpt lat="40.8954260155255" lon="-3.87617838946291">
        <time>2024-03-12T04:14:51Z</time>
      </trkpt>
      <trkpt lat="40.8953374250927" lon="-3.87632452874437">
        <time>2024-03-12T04:14:51Z</time>
      </trkpt>
      <trkpt lat="40.8952612022813" lon="-3.87644200974124">
        <time>2024-03-12T04:14:51Z</time>
      </trkpt>
      <trkpt lat="40.8951991441402" lon="-3.87661411731743">
        <time>2024-03-12T04:14:51Z</time>
      </trkpt>
      <trkpt lat="40.8951710049721" lon="-3.87679948180155">
        <time>2024-03-12T04:14:51Z</time>
      </trkpt>
      <trkpt lat="40.8951469214339" lon="-3.87709057700028">
        <time>2024-03-12T04:14:51Z</time>
      </trkpt>
      <trkpt lat="40.8951476219305" lon="-3.87731795259074">
        <time>2024-03-12T04:14:51Z</time>
      </trkpt>
      <trkpt lat="40.895161177319" lon="-3.87745263010347">
        <time>2024-03-12T04:14:51Z</time>
      </trkpt>
      <trkpt lat="40.8950862134632" lon="-3.87772383843858">
        <time>2024-03-12T04:14:51Z</time>
      </trkpt>
      <trkpt lat="40.8949951425899" lon="-3.87787634678882">
        <time>2024-03-12T04:14:51Z</time>
      </trkpt>
      <trkpt lat="40.8948826425061" lon="-3.87797092944167">
        <time>2024-03-12T04:14:51Z</time>
      </trkpt>
      <trkpt lat="40.8947313637539" lon="-3.87805218972745">
        <time>2024-03-12T04:14:51Z</time>
      </trkpt>
      <trkpt lat="40.8945141889276" lon="-3.87817100600849">
        <time>2024-03-12T04:14:51Z</time>
      </trkpt>
      <trkpt lat="40.894224316353" lon="-3.87826324164928">
        <time>2024-03-12T04:14:51Z</time>
      </trkpt>
      <trkpt lat="40.8941197636505" lon="-3.87827146577589">
        <time>2024-03-12T04:14:51Z</time>
      </trkpt>
      <trkpt lat="40.8938939669403" lon="-3.87824606353805">
        <time>2024-03-12T04:14:51Z</time>
      </trkpt>
      <trkpt lat="40.8937967035045" lon="-3.87825438406144">
        <time>2024-03-12T04:14:51Z</time>
      </trkpt>
      <trkpt lat="40.8937234937887" lon="-3.87829504541799">
        <time>2024-03-12T04:14:51Z</time>
      </trkpt>
      <trkpt lat="40.8936079538792" lon="-3.87846964208826">
        <time>2024-03-12T04:14:51Z</time>
      </trkpt>
      <trkpt lat="40.8934988247039" lon="-3.87875960444361">
        <time>2024-03-12T04:14:51Z</time>
      </trkpt>
      <trkpt lat="40.8934156654972" lon="-3.87914917963747">
        <time>2024-03-12T04:14:51Z</time>
      </trkpt>
      <trkpt lat="40.89331338438" lon="-3.87949687129391">
        <time>2024-03-12T04:14:51Z</time>
      </trkpt>
      <trkpt lat="40.8932935312003" lon="-3.87955104666878">
        <time>2024-03-12T04:14:51Z</time>
      </trkpt>
      <trkpt lat="40.8932785252975" lon="-3.87960688734064">
        <time>2024-03-12T04:14:51Z</time>
      </trkpt>
      <trkpt lat="40.893266301407" lon="-3.8798419009003">
        <time>2024-03-12T04:14:51Z</time>
      </trkpt>
      <trkpt lat="40.8932553198297" lon="-3.87994121522954">
        <time>2024-03-12T04:14:51Z</time>
      </trkpt>
      <trkpt lat="40.8932397517707" lon="-3.88007070009086">
        <time>2024-03-12T04:14:51Z</time>
      </trkpt>
      <trkpt lat="40.8932292490491" lon="-3.88015472915997">
        <time>2024-03-12T04:14:51Z</time>
      </trkpt>
      <trkpt lat="40.8931553752294" lon="-3.88022009730569">
        <time>2024-03-12T04:14:51Z</time>
      </trkpt>
      <trkpt lat="40.8930010392081" lon="-3.88025011883827">
        <time>2024-03-12T04:14:51Z</time>
      </trkpt>
      <trkpt lat="40.8929103662291" lon="-3.88024566017445">
        <time>2024-03-12T04:14:51Z</time>
      </trkpt>
      <trkpt lat="40.8927634515146" lon="-3.88023250507689">
        <time>2024-03-12T04:14:51Z</time>
      </trkpt>
      <trkpt lat="40.8927075107947" lon="-3.88023135280636">
        <time>2024-03-12T04:14:51Z</time>
      </trkpt>
      <trkpt lat="40.8926442101654" lon="-3.88025494126907">
        <time>2024-03-12T04:14:51Z</time>
      </trkpt>
      <trkpt lat="40.8925563234597" lon="-3.88030821405571">
        <time>2024-03-12T04:14:51Z</time>
      </trkpt>
      <trkpt lat="40.8925117365258" lon="-3.88032730557042">
        <time>2024-03-12T04:14:51Z</time>
      </trkpt>
      <trkpt lat="40.8924381625435" lon="-3.88034827653495">
        <time>2024-03-12T04:14:51Z</time>
      </trkpt>
      <trkpt lat="40.892362754551" lon="-3.88035848465585">
        <time>2024-03-12T04:14:51Z</time>
      </trkpt>
      <trkpt lat="40.8921048232241" lon="-3.88041380012358">
        <time>2024-03-12T04:14:51Z</time>
      </trkpt>
      <trkpt lat="40.892032667044" lon="-3.88046618573461">
        <time>2024-03-12T04:14:51Z</time>
      </trkpt>
      <trkpt lat="40.891875128807" lon="-3.88057137034663">
        <time>2024-03-12T04:14:51Z</time>
      </trkpt>
      <trkpt lat="40.8917552883746" lon="-3.88067225109434">
        <time>2024-03-12T04:14:51Z</time>
      </trkpt>
      <trkpt lat="40.8915692330778" lon="-3.88085230758302">
        <time>2024-03-12T04:14:51Z</time>
      </trkpt>
      <trkpt lat="40.8913942337077" lon="-3.88101649893023">
        <time>2024-03-12T04:14:51Z</time>
      </trkpt>
      <trkpt lat="40.8912400338197" lon="-3.88116175246336">
        <time>2024-03-12T04:14:51Z</time>
      </trkpt>
      <trkpt lat="40.8908852356505" lon="-3.88148206202554">
        <time>2024-03-12T04:14:51Z</time>
      </trkpt>
      <trkpt lat="40.8906880616233" lon="-3.88168598227666">
        <time>2024-03-12T04:14:51Z</time>
      </trkpt>
      <trkpt lat="40.8904993546621" lon="-3.88189481693106">
        <time>2024-03-12T04:14:51Z</time>
      </trkpt>
      <trkpt lat="40.8903156292869" lon="-3.88208770602338">
        <time>2024-03-12T04:14:51Z</time>
      </trkpt>
      <trkpt lat="40.8900485815201" lon="-3.88237234799216">
        <time>2024-03-12T04:14:51Z</time>
      </trkpt>
      <trkpt lat="40.8899247519006" lon="-3.8825179990264">
        <time>2024-03-12T04:14:51Z</time>
      </trkpt>
      <trkpt lat="40.889825476954" lon="-3.88263035394664">
        <time>2024-03-12T04:14:51Z</time>
      </trkpt>
      <trkpt lat="40.8897065432872" lon="-3.88277126597038">
        <time>2024-03-12T04:14:51Z</time>
      </trkpt>
      <trkpt lat="40.8895532129301" lon="-3.88296135236812">
        <time>2024-03-12T04:14:51Z</time>
      </trkpt>
      <trkpt lat="40.8893828494563" lon="-3.88315441347117">
        <time>2024-03-12T04:14:51Z</time>
      </trkpt>
      <trkpt lat="40.8889701248824" lon="-3.8835812015518">
        <time>2024-03-12T04:14:51Z</time>
      </trkpt>
      <trkpt lat="40.8883916475956" lon="-3.88423312146734">
        <time>2024-03-12T04:14:51Z</time>
      </trkpt>
      <trkpt lat="40.8879750043032" lon="-3.88469506632901">
        <time>2024-03-12T04:14:51Z</time>
      </trkpt>
      <trkpt lat="40.8873777709293" lon="-3.88525706182389">
        <time>2024-03-12T04:14:51Z</time>
      </trkpt>
      <trkpt lat="40.8867741207969" lon="-3.88581072934535">
        <time>2024-03-12T04:14:51Z</time>
      </trkpt>
      <trkpt lat="40.8866692765595" lon="-3.88564881482442">
        <time>2024-03-12T04:14:51Z</time>
      </trkpt>
      <trkpt lat="40.8864352961373" lon="-3.88520928010184">
        <time>2024-03-12T04:14:51Z</time>
      </trkpt>
      <trkpt lat="40.8862077368409" lon="-3.88478039345086">
        <time>2024-03-12T04:14:51Z</time>
      </trkpt>
      <trkpt lat="40.8858517549333" lon="-3.88414487883469">
        <time>2024-03-12T04:14:51Z</time>
      </trkpt>
      <trkpt lat="40.8856887155256" lon="-3.88385774093743">
        <time>2024-03-12T04:14:51Z</time>
      </trkpt>
      <trkpt lat="40.8855688354399" lon="-3.88364145445892">
        <time>2024-03-12T04:14:51Z</time>
      </trkpt>
      <trkpt lat="40.8853941110143" lon="-3.88329829631738">
        <time>2024-03-12T04:14:51Z</time>
      </trkpt>
      <trkpt lat="40.8851965242632" lon="-3.88292105111765">
        <time>2024-03-12T04:14:51Z</time>
      </trkpt>
      <trkpt lat="40.8850718923105" lon="-3.88269526465983">
        <time>2024-03-12T04:14:51Z</time>
      </trkpt>
      <trkpt lat="40.8849618751983" lon="-3.88246487042514">
        <time>2024-03-12T04:14:51Z</time>
      </trkpt>
      <trkpt lat="40.8848424622249" lon="-3.88224292438331">
        <time>2024-03-12T04:14:51Z</time>
      </trkpt>
      <trkpt lat="40.8847797362685" lon="-3.8821326610875">
        <time>2024-03-12T04:14:51Z</time>
      </trkpt>
      <trkpt lat="40.8847995241478" lon="-3.88209148479043">
        <time>2024-03-12T04:14:51Z</time>
      </trkpt>
      <trkpt lat="40.8848900452111" lon="-3.88204418453553">
        <time>2024-03-12T04:14:51Z</time>
      </trkpt>
      <trkpt lat="40.8849777832095" lon="-3.88197359750764">
        <time>2024-03-12T04:14:51Z</time>
      </trkpt>
      <trkpt lat="40.8850743707202" lon="-3.88189483349029">
        <time>2024-03-12T04:14:51Z</time>
      </trkpt>
      <trkpt lat="40.885154865892" lon="-3.88181149568001">
        <time>2024-03-12T04:14:51Z</time>
      </trkpt>
      <trkpt lat="40.8852296273155" lon="-3.88177042103462">
        <time>2024-03-12T04:14:51Z</time>
      </trkpt>
      <trkpt lat="40.8853548629403" lon="-3.88169189326356">
        <time>2024-03-12T04:14:51Z</time>
      </trkpt>
      <trkpt lat="40.8854676181317" lon="-3.88167202446594">
        <time>2024-03-12T04:14:51Z</time>
      </trkpt>
      <trkpt lat="40.8855198516871" lon="-3.88167390471301">
        <time>2024-03-12T04:14:51Z</time>
      </trkpt>
      <trkpt lat="40.8855883892026" lon="-3.88166413167861">
        <time>2024-03-12T04:14:51Z</time>
      </trkpt>
      <trkpt lat="40.8856839276155" lon="-3.88162596286991">
        <time>2024-03-12T04:14:51Z</time>
      </trkpt>
      <trkpt lat="40.8857607709201" lon="-3.88158695912271">
        <time>2024-03-12T04:14:51Z</time>
      </trkpt>
      <trkpt lat="40.8858921792663" lon="-3.88151860509278">
        <time>2024-03-12T04:14:51Z</time>
      </trkpt>
      <trkpt lat="40.8860452679186" lon="-3.88152538457964">
        <time>2024-03-12T04:14:51Z</time>
      </trkpt>
      <trkpt lat="40.8861427468656" lon="-3.88150056467718">
        <time>2024-03-12T04:14:51Z</time>
      </trkpt>
      <trkpt lat="40.8862077205259" lon="-3.88145040584916">
        <time>2024-03-12T04:14:51Z</time>
      </trkpt>
      <trkpt lat="40.8863372195189" lon="-3.88135766770219">
        <time>2024-03-12T04:14:51Z</time>
      </trkpt>
      <trkpt lat="40.8864777379747" lon="-3.88125386865847">
        <time>2024-03-12T04:14:51Z</time>
      </trkpt>
      <trkpt lat="40.8865792578994" lon="-3.88116556149705">
        <time>2024-03-12T04:14:51Z</time>
      </trkpt>
      <trkpt lat="40.8866367608226" lon="-3.88111349243124">
        <time>2024-03-12T04:14:51Z</time>
      </trkpt>
      <trkpt lat="40.8866916016024" lon="-3.88109180634327">
        <time>2024-03-12T04:14:51Z</time>
      </trkpt>
      <trkpt lat="40.8867684202668" lon="-3.8810560030177">
        <time>2024-03-12T04:14:51Z</time>
      </trkpt>
      <trkpt lat="40.8868547989761" lon="-3.88104113903622">
        <time>2024-03-12T04:14:51Z</time>
      </trkpt>
      <trkpt lat="40.8870144372869" lon="-3.8809792174575">
        <time>2024-03-12T04:14:51Z</time>
      </trkpt>
      <trkpt lat="40.8871374702316" lon="-3.88093762283812">
        <time>2024-03-12T04:14:51Z</time>
      </trkpt>
      <trkpt lat="40.8872981888657" lon="-3.88089332588658">
        <time>2024-03-12T04:14:51Z</time>
      </trkpt>
      <trkpt lat="40.8874277240657" lon="-3.88085883167768">
        <time>2024-03-12T04:14:51Z</time>
      </trkpt>
      <trkpt lat="40.8874953049451" lon="-3.88085591534902">
        <time>2024-03-12T04:14:51Z</time>
      </trkpt>
      <trkpt lat="40.8876457543118" lon="-3.88088352636097">
        <time>2024-03-12T04:14:51Z</time>
      </trkpt>
      <trkpt lat="40.887826636778" lon="-3.88090353614444">
        <time>2024-03-12T04:14:51Z</time>
      </trkpt>
      <trkpt lat="40.8879153473953" lon="-3.8809015106524">
        <time>2024-03-12T04:14:51Z</time>
      </trkpt>
      <trkpt lat="40.8880183432085" lon="-3.88090108754611">
        <time>2024-03-12T04:14:51Z</time>
      </trkpt>
      <trkpt lat="40.8881555540535" lon="-3.88086373580587">
        <time>2024-03-12T04:14:51Z</time>
      </trkpt>
      <trkpt lat="40.8882636966147" lon="-3.88085804787349">
        <time>2024-03-12T04:14:51Z</time>
      </trkpt>
      <trkpt lat="40.8884464451021" lon="-3.88088293812895">
        <time>2024-03-12T04:14:51Z</time>
      </trkpt>
      <trkpt lat="40.888579437478" lon="-3.88091683818489">
        <time>2024-03-12T04:14:51Z</time>
      </trkpt>
      <trkpt lat="40.8887706561346" lon="-3.88088495055062">
        <time>2024-03-12T04:14:51Z</time>
      </trkpt>
      <trkpt lat="40.8888741046319" lon="-3.88090412793445">
        <time>2024-03-12T04:14:51Z</time>
      </trkpt>
      <trkpt lat="40.8889877796826" lon="-3.88095575943758">
        <time>2024-03-12T04:14:51Z</time>
      </trkpt>
      <trkpt lat="40.8891793147281" lon="-3.88101273480927">
        <time>2024-03-12T04:14:51Z</time>
      </trkpt>
      <trkpt lat="40.8892550459715" lon="-3.88103619293382">
        <time>2024-03-12T04:14:51Z</time>
      </trkpt>
      <trkpt lat="40.8894202806111" lon="-3.88111999826639">
        <time>2024-03-12T04:14:51Z</time>
      </trkpt>
      <trkpt lat="40.8895983418033" lon="-3.88119120508108">
        <time>2024-03-12T04:14:51Z</time>
      </trkpt>
      <trkpt lat="40.8896572419872" lon="-3.88121602312016">
        <time>2024-03-12T04:14:51Z</time>
      </trkpt>
      <trkpt lat="40.8898587616213" lon="-3.8812507470595">
        <time>2024-03-12T04:14:51Z</time>
      </trkpt>
      <trkpt lat="40.8899777311166" lon="-3.88124282922314">
        <time>2024-03-12T04:14:51Z</time>
      </trkpt>
      <trkpt lat="40.890164377288" lon="-3.88121152340055">
        <time>2024-03-12T04:14:51Z</time>
      </trkpt>
      <trkpt lat="40.8902302813734" lon="-3.88120107221118">
        <time>2024-03-12T04:14:51Z</time>
      </trkpt>
      <trkpt lat="40.8903305077488" lon="-3.88117035156369">
        <time>2024-03-12T04:14:51Z</time>
      </trkpt>
      <trkpt lat="40.8904915911371" lon="-3.8810739630762">
        <time>2024-03-12T04:14:51Z</time>
      </trkpt>
      <trkpt lat="40.8905902166684" lon="-3.88097541322535">
        <time>2024-03-12T04:14:51Z</time>
      </trkpt>
      <trkpt lat="40.8906667203889" lon="-3.88090772394745">
        <time>2024-03-12T04:14:51Z</time>
      </trkpt>
      <trkpt lat="40.8907975411925" lon="-3.88076345053685">
        <time>2024-03-12T04:14:51Z</time>
      </trkpt>
      <trkpt lat="40.8908572977192" lon="-3.88068596057855">
        <time>2024-03-12T04:14:51Z</time>
      </trkpt>
      <trkpt lat="40.8909653560879" lon="-3.8805368928638">
        <time>2024-03-12T04:14:51Z</time>
      </trkpt>
      <trkpt lat="40.8910551299848" lon="-3.88039558765046">
        <time>2024-03-12T04:14:51Z</time>
      </trkpt>
      <trkpt lat="40.8910917411855" lon="-3.88034443896207">
        <time>2024-03-12T04:14:51Z</time>
      </trkpt>
      <trkpt lat="40.8912643049996" lon="-3.88024418549657">
        <time>2024-03-12T04:14:51Z</time>
      </trkpt>
      <trkpt lat="40.8914349392304" lon="-3.88013192061914">
        <time>2024-03-12T04:14:51Z</time>
      </trkpt>
      <trkpt lat="40.8915317795347" lon="-3.88002885365409">
        <time>2024-03-12T04:14:51Z</time>
      </trkpt>
      <trkpt lat="40.8916049489735" lon="-3.87996904205447">
        <time>2024-03-12T04:14:51Z</time>
      </trkpt>
      <trkpt lat="40.8917305563769" lon="-3.87977371231393">
        <time>2024-03-12T04:14:51Z</time>
      </trkpt>
      <trkpt lat="40.8918666278582" lon="-3.87957965436329">
        <time>2024-03-12T04:14:51Z</time>
      </trkpt>
      <trkpt lat="40.8919689901226" lon="-3.87941662458768">
        <time>2024-03-12T04:14:51Z</time>
      </trkpt>
      <trkpt lat="40.8922262750704" lon="-3.87913663667102">
        <time>2024-03-12T04:14:51Z</time>
      </trkpt>
      <trkpt lat="40.8923550820197" lon="-3.87897502917826">
        <time>2024-03-12T04:14:51Z</time>
      </trkpt>
      <trkpt lat="40.8924112177868" lon="-3.87893165958617">
        <time>2024-03-12T04:14:51Z</time>
      </trkpt>
      <trkpt lat="40.8925086657958" lon="-3.87900752585683">
        <time>2024-03-12T04:14:51Z</time>
      </trkpt>
      <trkpt lat="40.8927317276344" lon="-3.87904377151323">
        <time>2024-03-12T04:14:51Z</time>
      </trkpt>
      <trkpt lat="40.8928708284532" lon="-3.87909089161028">
        <time>2024-03-12T04:14:51Z</time>
      </trkpt>
      <trkpt lat="40.8929715717009" lon="-3.87913217719542">
        <time>2024-03-12T04:14:51Z</time>
      </trkpt>
      <trkpt lat="40.8930689891039" lon="-3.87921203921691">
        <time>2024-03-12T04:14:51Z</time>
      </trkpt>
      <trkpt lat="40.8931480692099" lon="-3.87934737861555">
        <time>2024-03-12T04:14:51Z</time>
      </trkpt>
      <trkpt lat="40.8932965147499" lon="-3.87954290516222">
        <time>2024-03-12T04:14:51Z</time>
      </trkpt>
      <trkpt lat="40.8933908309128" lon="-3.87921930053908">
        <time>2024-03-12T04:14:51Z</time>
      </trkpt>
      <trkpt lat="40.8934320325013" lon="-3.8790741432052">
        <time>2024-03-12T04:14:51Z</time>
      </trkpt>
      <trkpt lat="40.8934913890427" lon="-3.8787787196269">
        <time>2024-03-12T04:14:51Z</time>
      </trkpt>
      <trkpt lat="40.8935658552833" lon="-3.87857315885327">
        <time>2024-03-12T04:14:51Z</time>
      </trkpt>
      <trkpt lat="40.8936079538792" lon="-3.87846964208826">
        <time>2024-03-12T04:14:51Z</time>
      </trkpt>
      <trkpt lat="40.8937234937887" lon="-3.87829504541799">
        <time>2024-03-12T04:14:51Z</time>
      </trkpt>
      <trkpt lat="40.8937967035045" lon="-3.87825438406144">
        <time>2024-03-12T04:14:51Z</time>
      </trkpt>
      <trkpt lat="40.8938648342395" lon="-3.87824247597657">
        <time>2024-03-12T04:14:51Z</time>
      </trkpt>
      <trkpt lat="40.8941197636505" lon="-3.87827146577589">
        <time>2024-03-12T04:14:51Z</time>
      </trkpt>
      <trkpt lat="40.894224316353" lon="-3.87826324164928">
        <time>2024-03-12T04:14:51Z</time>
      </trkpt>
      <trkpt lat="40.8944642691908" lon="-3.87818475625472">
        <time>2024-03-12T04:14:51Z</time>
      </trkpt>
      <trkpt lat="40.8946911630591" lon="-3.87806606861706">
        <time>2024-03-12T04:14:51Z</time>
      </trkpt>
      <trkpt lat="40.8948826425061" lon="-3.87797092944167">
        <time>2024-03-12T04:14:51Z</time>
      </trkpt>
      <trkpt lat="40.895006259301" lon="-3.87785247623239">
        <time>2024-03-12T04:14:51Z</time>
      </trkpt>
      <trkpt lat="40.8950862134632" lon="-3.87772383843858">
        <time>2024-03-12T04:14:51Z</time>
      </trkpt>
      <trkpt lat="40.895161177319" lon="-3.87745263010347">
        <time>2024-03-12T04:14:51Z</time>
      </trkpt>
      <trkpt lat="40.8951476219305" lon="-3.87731795259074">
        <time>2024-03-12T04:14:51Z</time>
      </trkpt>
      <trkpt lat="40.8951469214339" lon="-3.87709057700028">
        <time>2024-03-12T04:14:51Z</time>
      </trkpt>
      <trkpt lat="40.8951630705379" lon="-3.87688423914143">
        <time>2024-03-12T04:14:51Z</time>
      </trkpt>
      <trkpt lat="40.8951761322718" lon="-3.87676432371522">
        <time>2024-03-12T04:14:51Z</time>
      </trkpt>
      <trkpt lat="40.8951991441402" lon="-3.87661411731743">
        <time>2024-03-12T04:14:51Z</time>
      </trkpt>
      <trkpt lat="40.8952612022813" lon="-3.87644200974124">
        <time>2024-03-12T04:14:51Z</time>
      </trkpt>
      <trkpt lat="40.8953768121574" lon="-3.87625779909372">
        <time>2024-03-12T04:14:51Z</time>
      </trkpt>
      <trkpt lat="40.8954260155255" lon="-3.87617838946291">
        <time>2024-03-12T04:14:51Z</time>
      </trkpt>
      <trkpt lat="40.8954850351712" lon="-3.87608629978844">
        <time>2024-03-12T04:14:51Z</time>
      </trkpt>
      <trkpt lat="40.8955423059783" lon="-3.87590452074483">
        <time>2024-03-12T04:14:51Z</time>
      </trkpt>
      <trkpt lat="40.895592202125" lon="-3.87573385240694">
        <time>2024-03-12T04:14:51Z</time>
      </trkpt>
      <trkpt lat="40.8956281265629" lon="-3.8756430587431">
        <time>2024-03-12T04:14:51Z</time>
      </trkpt>
      <trkpt lat="40.8956774515767" lon="-3.87538751969064">
        <time>2024-03-12T04:14:51Z</time>
      </trkpt>
      <trkpt lat="40.895753794839" lon="-3.87525402647659">
        <time>2024-03-12T04:14:51Z</time>
      </trkpt>
      <trkpt lat="40.8958490414314" lon="-3.87519123437225">
        <time>2024-03-12T04:14:51Z</time>
      </trkpt>
      <trkpt lat="40.8959495605687" lon="-3.87507407108763">
        <time>2024-03-12T04:14:51Z</time>
      </trkpt>
      <trkpt lat="40.8959941222661" lon="-3.87496577727982">
        <time>2024-03-12T04:14:51Z</time>
      </trkpt>
      <trkpt lat="40.8960295963668" lon="-3.87477410157132">
        <time>2024-03-12T04:14:51Z</time>
      </trkpt>
      <trkpt lat="40.896079405863" lon="-3.87461463834716">
        <time>2024-03-12T04:14:51Z</time>
      </trkpt>
      <trkpt lat="40.8961896434576" lon="-3.87449760177523">
        <time>2024-03-12T04:14:51Z</time>
      </trkpt>
      <trkpt lat="40.8962733720888" lon="-3.87435139417222">
        <time>2024-03-12T04:14:51Z</time>
      </trkpt>
      <trkpt lat="40.8963569063494" lon="-3.87423080285445">
        <time>2024-03-12T04:14:51Z</time>
      </trkpt>
      <trkpt lat="40.8964103610391" lon="-3.87423150662427">
        <time>2024-03-12T04:14:51Z</time>
      </trkpt>
      <trkpt lat="40.8966637377232" lon="-3.87446541650993">
        <time>2024-03-12T04:14:51Z</time>
      </trkpt>
      <trkpt lat="40.8967438954676" lon="-3.87446967456041">
        <time>2024-03-12T04:14:51Z</time>
      </trkpt>
      <trkpt lat="40.8969559157081" lon="-3.87438920358376">
        <time>2024-03-12T04:14:51Z</time>
      </trkpt>
      <trkpt lat="40.8972422850628" lon="-3.8741175644289">
        <time>2024-03-12T04:14:51Z</time>
      </trkpt>
      <trkpt lat="40.8973375431775" lon="-3.87405316824868">
        <time>2024-03-12T04:14:51Z</time>
      </trkpt>
      <trkpt lat="40.8974034500128" lon="-3.87401400516412">
        <time>2024-03-12T04:14:51Z</time>
      </trkpt>
      <trkpt lat="40.8974984289988" lon="-3.87398643325968">
        <time>2024-03-12T04:14:51Z</time>
      </trkpt>
      <trkpt lat="40.8976295874103" lon="-3.8739945645716">
        <time>2024-03-12T04:14:51Z</time>
      </trkpt>
      <trkpt lat="40.8978100462087" lon="-3.87407059676223">
        <time>2024-03-12T04:14:51Z</time>
      </trkpt>
      <trkpt lat="40.8979855240687" lon="-3.87416257619997">
        <time>2024-03-12T04:14:51Z</time>
      </trkpt>
      <trkpt lat="40.8981218817819" lon="-3.8741259415757">
        <time>2024-03-12T04:14:51Z</time>
      </trkpt>
      <trkpt lat="40.8981923690339" lon="-3.87412366704854">
        <time>2024-03-12T04:14:51Z</time>
      </trkpt>
      <trkpt lat="40.898248132106" lon="-3.87414041363127">
        <time>2024-03-12T04:14:51Z</time>
      </trkpt>
      <trkpt lat="40.8985856753664" lon="-3.87433060302522">
        <time>2024-03-12T04:14:51Z</time>
      </trkpt>
      <trkpt lat="40.8987707991664" lon="-3.87443231884849">
        <time>2024-03-12T04:14:51Z</time>
      </trkpt>
      <trkpt lat="40.8991276949408" lon="-3.87463397507075">
        <time>2024-03-12T04:14:51Z</time>
      </trkpt>
    </trkseg>
  </trk>
</gpx>
